Voltar ao catálogo

STARLINK-35508

AtivoComunicaçõesVLEO
NORAD 65912·PAYLOAD·🇺🇸 United States

Lançado Oct 8, 2025 de Vandenberg Space Force Base

Loading…

Próximas Passagens (próximas 24 horas)

TLE

AtualizadoSource: CelesTrak SupGP

Época: Sep 14, 2026, 21:33 UTC

1 65912C 25225C   26257.89840278 -.00004015  00000+0 -11870-3 0  2575
2 65912  53.1591   3.6331 0001378  83.3457 212.5887 15.34372022    17

Acompanhe STARLINK-35508 em tempo real com AllMySat

Download on the App Store